| time (UTC) | temp F | wind direction | speed knots | gust knots | rain 1hr in | rain 24hr in | rain mn in | humidity % | barometer mb |
| 20260503021509 | 50 | 94 | 0.0 | 1.7 | 0.00 | 0.05 | 0.05 | 55 | 1012.9 |
| 20260503020012 | 50 | 271 | 0.0 | 1.7 | 0.00 | 0.05 | 0.05 | 53 | 1012.9 |
| 20260503014503 | 50 | 9 | 0.0 | 1.7 | 0.00 | 0.05 | 0.05 | 53 | 1012.9 |
| 20260503013009 | 51 | 224 | 0.0 | 1.7 | 0.00 | 0.05 | 0.05 | 52 | 1012.7 |
| 20260503011504 | 51 | 224 | 0.0 | 1.7 | 0.00 | 0.05 | 0.05 | 51 | 1012.6 |
| 20260503010008 | 51 | 231 | 0.0 | 0.0 | 0.00 | 0.05 | 0.05 | 50 | 1012.3 |
| 20260503004513 | 51 | 231 | 0.0 | 1.7 | 0.00 | 0.05 | 0.05 | 50 | 1012.1 |
| 20260503003004 | 52 | 215 | 0.0 | 1.7 | 0.00 | 0.05 | 0.05 | 48 | 1012.2 |
| 20260503001503 | 52 | 267 | 0.0 | 1.7 | 0.00 | 0.05 | 0.05 | 48 | 1012.0 |
| 20260503000014 | 52 | 267 | 0.0 | 1.7 | 0.00 | 0.05 | 0.05 | 47 | 1011.8 |
| 20260502234511 | 53 | 271 | 0.0 | 1.7 | 0.00 | 0.05 | 0.05 | 46 | 1011.7 |
| 20260502233014 | 53 | 286 | 0.0 | 1.7 | 0.00 | 0.05 | 0.05 | 44 | 1011.5 |
| 20260502231503 | 54 | 202 | 0.0 | 1.7 | 0.00 | 0.05 | 0.05 | 45 | 1011.6 |
| 20260502230004 | 54 | 336 | 0.9 | 1.7 | 0.00 | 0.05 | 0.05 | 46 | 1011.6 |
| 20260502224509 | 54 | 49 | 0.0 | 1.7 | 0.00 | 0.05 | 0.05 | 44 | 1011.7 |
| 20260502223017 | 55 | 200 | 0.0 | 1.7 | 0.00 | 0.05 | 0.05 | 44 | 1011.7 |
| 20260502221519 | 55 | 208 | 0.9 | 2.6 | 0.00 | 0.05 | 0.05 | 45 | 1011.6 |
| 20260502220005 | 55 | 146 | 0.0 | 1.7 | 0.00 | 0.05 | 0.05 | 42 | 1011.4 |
| 20260502214504 | 56 | 218 | 0.0 | 1.7 | 0.00 | 0.05 | 0.05 | 41 | 1011.3 |
| 20260502213009 | 56 | 63 | 0.9 | 2.6 | 0.00 | 0.05 | 0.05 | 40 | 1011.3 |
| 20260502211521 | 58 | 82 | 0.9 | 4.3 | 0.00 | 0.05 | 0.05 | 38 | 1011.1 |
| 20260502210021 | 57 | 352 | 0.9 | 3.5 | 0.00 | 0.05 | 0.05 | 37 | 1011.0 |
| 20260502204504 | 58 | 197 | 0.9 | 2.6 | 0.00 | 0.05 | 0.05 | 38 | 1010.9 |
| 20260502203010 | 58 | 181 | 0.9 | 4.3 | 0.00 | 0.05 | 0.05 | 38 | 1011.0 |
| 20260502201513 | 58 | 181 | 2.6 | 5.2 | 0.00 | 0.05 | 0.05 | 39 | 1011.0 |
| 20260502200024 | 58 | 71 | 0.9 | 2.6 | 0.00 | 0.05 | 0.05 | 39 | 1011.3 |
| 20260502194523 | 57 | 98 | 0.9 | 1.7 | 0.00 | 0.05 | 0.05 | 41 | 1011.5 |
| 20260502193011 | 57 | 196 | 0.0 | 3.5 | 0.00 | 0.05 | 0.05 | 44 | 1011.7 |
| 20260502191513 | 58 | 49 | 1.7 | 3.5 | 0.00 | 0.05 | 0.05 | 42 | 1012.1 |
| 20260502190018 | 56 | 30 | 1.7 | 2.6 | 0.00 | 0.05 | 0.05 | 47 | 1012.2 |
| 20260502184522 | 57 | 352 | 0.9 | 2.6 | 0.00 | 0.05 | 0.05 | 45 | 1012.4 |
| 20260502183023 | 57 | 174 | 0.0 | 2.6 | 0.00 | 0.05 | 0.05 | 45 | 1012.5 |
| 20260502181507 | 57 | 213 | 0.9 | 1.7 | 0.00 | 0.05 | 0.05 | 41 | 1012.6 |
| 20260502163023 | 57 | 24 | 0.9 | 3.5 | 0.00 | 0.05 | 0.05 | 51 | 1013.3 |
| 20260502161527 | 57 | 214 | 1.7 | 3.5 | 0.00 | 0.05 | 0.05 | 48 | 1013.3 |
| 20260502151525 | 54 | 30 | 0.9 | 5.2 | 0.00 | 0.05 | 0.05 | 54 | 1013.5 |
| 20260502123018 | 47 | 17 | 1.7 | 2.6 | 0.00 | 0.05 | 0.05 | 74 | 1013.8 |
| 20260502121503 | 46 | 11 | 0.9 | 2.6 | 0.00 | 0.05 | 0.05 | 76 | 1013.6 |
| 20260502114503 | 46 | 14 | 2.6 | 4.3 | 0.00 | 0.05 | 0.05 | 79 | 1013.6 |
| 20260502113013 | 45 | 19 | 0.9 | 4.3 | 0.00 | 0.05 | 0.05 | 83 | 1013.5 |
| 20260502111513 | 45 | 24 | 0.0 | 1.7 | 0.00 | 0.05 | 0.05 | 90 | 1013.2 |
| 20260502110003 | 45 | 218 | 0.0 | 0.9 | 0.00 | 0.05 | 0.05 | 90 | 1013.2 |
| 20260502104518 | 45 | 221 | 0.0 | 1.7 | 0.00 | 0.05 | 0.05 | 90 | 1013.0 |
| 20260502103010 | 45 | 180 | 0.0 | 1.7 | 0.00 | 0.05 | 0.05 | 90 | 1012.7 |
| 20260502101514 | 45 | 182 | 0.0 | 1.7 | 0.00 | 0.05 | 0.05 | 91 | 1012.6 |
| 20260502091515 | 45 | 190 | 0.0 | 0.0 | 0.00 | 0.05 | 0.05 | 94 | 1011.7 |
| 20260502071505 | 48 | 190 | 0.0 | 0.0 | 0.03 | 0.05 | 0.05 | 92 | 1011.6 |
| 20260502070013 | 48 | 190 | 0.0 | 0.0 | 0.04 | 0.05 | 0.05 | 92 | 1011.6 |
| 20260502064507 | 48 | 190 | 0.0 | 0.0 | 0.03 | 0.04 | 0.04 | 91 | 1011.8 |
| 20260502063002 | 48 | 190 | 0.0 | 0.0 | 0.04 | 0.04 | 0.04 | 89 | 1012.0 |
| 20260502061501 | 49 | 190 | 0.0 | 0.0 | 0.02 | 0.02 | 0.02 | 88 | 1012.2 |
| 20260502060006 | 49 | 190 | 0.0 | 0.0 | 0.01 | 0.01 | 0.01 | 88 | 1012.5 |
| 20260502054518 | 50 | 190 | 0.0 | 0.9 | 0.01 | 0.01 | 0.01 | 85 | 1012.5 |
| 20260502053003 | 50 | 190 | 0.0 | 0.0 | 0.00 | 0.00 | 0.00 | 83 | 1012.5 |
| 20260502051503 | 50 | 190 | 0.0 | 0.0 | 0.00 | 0.00 | 0.00 | 83 | 1012.5 |
| 20260502050006 | 50 | 244 | 0.0 | 1.7 | 0.00 | 0.00 | 0.00 | 84 | 1012.5 |
| 20260502044510 | 50 | 244 | 0.0 | 1.7 | 0.00 | 0.00 | 0.00 | 84 | 1012.6 |
| 20260502043016 | 50 | 248 | 0.0 | 1.7 | 0.00 | 0.00 | 0.00 | 86 | 1012.7 |
| 20260502041503 | 49 | 12 | 0.0 | 0.0 | 0.00 | 0.00 | 0.00 | 88 | 1012.2 |
| 20260502040003 | 49 | 12 | 0.0 | 0.0 | 0.00 | 0.00 | 0.00 | 89 | 1012.3 |
| 20260502034508 | 49 | 12 | 0.0 | 1.7 | 0.00 | 0.00 | 0.00 | 89 | 1012.1 |
| 20260502033014 | 49 | 12 | 0.0 | 0.0 | 0.00 | 0.00 | 0.00 | 88 | 1011.8 |
| 20260502031517 | 49 | 12 | 0.0 | 0.0 | 0.00 | 0.00 | 0.00 | 87 | 1011.6 |
| 20260502030003 | 49 | 12 | 0.0 | 0.0 | 0.00 | 0.00 | 0.00 | 85 | 1011.6 |
| 20260502024505 | 49 | 12 | 0.0 | 0.0 | 0.00 | 0.00 | 0.00 | 84 | 1011.6 |
| 20260502023010 | 50 | 12 | 0.0 | 1.7 | 0.00 | 0.00 | 0.00 | 82 | 1011.7 |